Stations météo

réclame
Mon MeteoGroup
Karesuando A, Suède (2081): Température de l'air & dewpoint: 15.10.2017 10:00:00 - 21.10.2017 10:00:00 (CEST)Karesuando A, Suède (2081): Vitesse du vent & gusts: 15.10.2017 10:00:00 - 21.10.2017 10:00:00 (CEST)Karesuando A, Suède (2081): Direction du vent: 15.10.2017 10:00:00 - 21.10.2017 10:00:00 (CEST)Karesuando A, Suède (2081): reduced air pressure: 15.10.2017 10:00:00 - 21.10.2017 10:00:00 (CEST)Karesuando A, Suède (2081): visibility: 15.10.2017 10:00:00 - 21.10.2017 10:00:00 (CEST)Karesuando A, Suède (2081): Quantités de précipitations: 15.10.2017 10:00:00 - 21.10.2017 10:00:00 (CEST)
Date & Time tt [°C] td [°C] ff [km/h] ff [knt] fx [km/h] fx [knt] dd ppp [hPa] vv [km] rr [mm]
21.10.2017 10:00:00 -5,5 -6,5 9 5 15 8 SSW 1022,6 50 0,0
21.10.2017 09:00:00 -6,2 -7,1 10 6 17 9 SSW 1022,5 50 0,0
21.10.2017 08:00:00 -6,9 -7,8 10 5 14 8 SSW 1022,5 50 0,0
21.10.2017 07:00:00 -7,2 -8,1 9 5 16 9 SSW 1022,6 50 0,0
21.10.2017 06:00:00 -7,8 -8,9 11 6 16 8 SSW 1022,9 50 0,0
21.10.2017 05:00:00 -8,0 -9,0 11 6 14 7 SW 1023,0 50 0,0
21.10.2017 04:00:00 -8,6 -9,6 7 4 12 7 SW 1023,3 50 0,0
21.10.2017 03:00:00 -8,6 -9,8 8 5 16 9 SSW 1023,7 50 0,0
21.10.2017 02:00:00 -8,6 -9,8 11 6 15 8 SSW 1023,8 50 0,0
21.10.2017 01:00:00 -8,7 -9,7 9 5 15 8 SW 1023,9 50 0,0
21.10.2017 00:00:00 -8,0 -8,8 10 5 14 8 SSW 1024,3 50 0,0
20.10.2017 23:00:00 -8,1 -8,8 9 5 14 8 SW 1024,5 50 0,0
20.10.2017 22:00:00 -8,0 -8,8 9 5 14 8 SW 1024,9 50 0,0
20.10.2017 21:00:00 -7,7 -8,4 9 5 13 7 SSW 1025,0 50 0,0
20.10.2017 20:00:00 -7,7 -8,4 9 5 15 8 SSW 1025,4 50 0,0
20.10.2017 19:00:00 -7,9 -8,7 9 5 15 8 SSW 1025,4 50 0,0
20.10.2017 18:00:00 -7,0 -7,7 10 6 13 7 SSW 1025,6 50 0,0
20.10.2017 17:00:00 -6,1 -6,9 8 4 10 6 WSW 1025,7 50 0,0
20.10.2017 16:00:00 -4,3 -5,2 6 4 8 5 WSW 1025,9 50 0,0
20.10.2017 15:00:00 -3,0 -4,4 4 2 9 5 SW 1026,0 50 0,0
20.10.2017 14:00:00 -2,5 -4,0 4 2 8 4 SW 1026,1 50 0,0
20.10.2017 13:00:00 -2,4 -4,8 3 2 6 3 WSW 1026,1 50 0,0
20.10.2017 12:00:00 -3,9 -5,5 4 2 8 4 WSW 1026,3 50 0,0
20.10.2017 11:00:00 -5,3 -6,4 4 2 7 4 SW 1026,4 50 0,0
20.10.2017 10:00:00 -6,8 -7,6 5 3 11 6 SSW 1026,1 47 0,0
20.10.2017 09:00:00 -8,9 -9,5 7 4 10 5 SW 1026,0 50 0,0
20.10.2017 08:00:00 -9,2 -9,8 6 3 10 5 SW 1025,6 50 0,0
20.10.2017 07:00:00 -8,7 -9,3 3 2 11 6 SW 1025,1 50 0,0
20.10.2017 06:00:00 -7,0 -7,5 8 4 11 6 W 1024,6 50 0,0
20.10.2017 05:00:00 -6,4 -6,9 4 2 12 6 W 1024,1 50 0,0
20.10.2017 04:00:00 -4,8 -5,2 9 5 16 8 WNW 1023,7 50 0,0
20.10.2017 03:00:00 -3,2 -3,3 7 4 22 12 NW 1023,2 50 0,0
20.10.2017 02:00:00 -1,8 -2,0 10 5 15 8 NW 1022,4 50 0,0
20.10.2017 01:00:00 -1,2 -1,3 6 3 10 5 WNW 1021,8 23 0,0
20.10.2017 00:00:00 -1,3 -1,3 6 3 9 5 NW 1021,6 4,8 0,0
19.10.2017 23:00:00 -1,2 -1,3 2 1 6 3 NNW 1021,1 2,8 0,0
19.10.2017 22:00:00 -1,3 -1,3 5 3 8 5 NNW 1020,6 50 0,0
19.10.2017 21:00:00 -1,2 -1,3 5 3 9 5 NNE 1020,1 24 0,0
19.10.2017 20:00:00 -0,7 -0,9 5 3 11 6 N 1019,7 19 0,0
19.10.2017 19:00:00 -0,5 -0,5 5 3 15 8 NE 1019,0 3,6 0,1
19.10.2017 18:00:00 -0,4 -0,4 6 3 13 7 NE 1018,5 3,3 0,1
19.10.2017 17:00:00 -0,1 -0,1 6 3 16 9 ENE 1018,1 4,1 0,3
19.10.2017 16:00:00 0,1 0,1 7 4 16 8 E 1017,6 3,2 0,3
19.10.2017 15:00:00 0,2 0,2 7 4 14 8 E 1017,2 3,4 0,2
19.10.2017 14:00:00 0,3 0,3 6 3 14 7 E 1016,7 4,3 0,2
19.10.2017 13:00:00 0,3 0,3 8 4 14 8 E 1016,3 4,0 0,1
19.10.2017 12:00:00 0,1 0,1 6 3 11 6 E 1016,2 3,6 0,5
19.10.2017 11:00:00 0,2 0,2 5 3 13 7 ESE 1015,9 9 0,1
19.10.2017 10:00:00 -0,1 -0,1 3 2 5 3 E 1015,3 6 0,1
19.10.2017 09:00:00 -0,5 -0,5 3 1 5 3 SE 1014,9 8 0,0
19.10.2017 08:00:00 -1,0 -1,0 3 2 4 2 S 1014,6 2,9 0,1
19.10.2017 07:00:00 -1,0 -1,0 0 0 5 3 NNW 1014,3 1,8 0,0
19.10.2017 06:00:00 -1,3 -1,3 3 2 4 2 WSW 1013,8 7 0,1
19.10.2017 05:00:00 -1,0 -1,0 2 1 6 4 NE 1013,2 15 0,1
19.10.2017 04:00:00 -0,6 -0,6 3 2 8 5 W 1013,0 11 0,1
19.10.2017 03:00:00 -0,5 -0,5 5 3 9 5 NW 1012,4 25 0,1
19.10.2017 02:00:00 -0,7 -0,7 6 3 9 5 NW 1011,7 4,3 0,1
19.10.2017 01:00:00 -0,3 -0,3 4 2 8 4 WNW 1011,0 7 0,1
19.10.2017 00:00:00 -0,2 -0,2 4 2 14 8 NW 1010,3 13 0,1
18.10.2017 23:00:00 0,1 0,0 9 5 13 7 NW 1009,7 10 0,0
18.10.2017 22:00:00 -0,4 -0,4 4 2 7 4 W 1009,0 9 0,2
18.10.2017 21:00:00 -0,3 -0,3 4 2 14 7 W 1008,3 13 0,1
18.10.2017 20:00:00 -0,2 -0,2 7 4 14 8 WNW 1007,7 5 0,0
18.10.2017 19:00:00 -0,8 -0,8 3 2 12 6 WNW 1007,2 9 0,0
18.10.2017 18:00:00 -0,8 -0,9 9 5 13 7 NW 1006,5 22 0,0
18.10.2017 17:00:00 -0,9 -1,0 7 4 14 7 WNW 1005,9 50 0,0
18.10.2017 16:00:00 -1,0 -1,1 7 4 14 7 NW 1005,3 42 0,0
18.10.2017 15:00:00 -0,6 -0,7 10 5 17 9 NW 1004,8 31 0,0
18.10.2017 14:00:00 -0,9 -0,9 5 3 12 7 WNW 1004,2 50 0,0
18.10.2017 13:00:00 -0,8 -0,8 2 1 10 5 WNW 1003,6 50 0,0
18.10.2017 12:00:00 -1,8 -1,8 7 4 11 6 NW 1003,2 43 0,0
18.10.2017 11:00:00 -2,2 -2,2 7 4 14 8 NW 1002,8 31 0,0
18.10.2017 10:00:00 -2,6 -2,8 8 4 14 7 NNW 1002,2 39 0,0
18.10.2017 09:00:00 -2,9 -3,0 7 4 13 7 NW 1001,5 25 0,0
18.10.2017 08:00:00 -3,0 -3,1 6 4 9 5 NW 1001,2 5 0,1
18.10.2017 07:00:00 -3,2 -3,4 3 1 7 4 WNW 1000,8 27 0,0
18.10.2017 06:00:00 -3,5 -3,7 5 3 9 5 NW 1000,5 3,3 0,2
18.10.2017 05:00:00 -3,5 -3,6 5 3 8 5 NW 1000,3 4,9 0,0
18.10.2017 04:00:00 -3,8 -3,9 3 2 10 5 NW 1000,3 0,9 0,0
18.10.2017 03:00:00 -4,3 -4,6 5 3 8 4 NW 1000,1 3,8 0,0
18.10.2017 02:00:00 -4,2 -4,4 5 3 8 4 NW 999,9 1,8 0,0
18.10.2017 01:00:00 -4,0 -4,3 3 2 10 6 NNW 999,7 0,6 0,0
18.10.2017 00:00:00 -3,5 -3,7 8 5 12 7 NW 999,7 1,2 0,0
17.10.2017 23:00:00 -2,7 -2,7 3 2 6 3 NNW 999,5 1,0 0,1
17.10.2017 22:00:00 -2,5 -2,5 3 2 5 3 NW 999,8 0,6 0,0
17.10.2017 21:00:00 -2,6 -2,6 3 2 9 5 NNW 999,7 0,7 0,0
17.10.2017 20:00:00 -2,4 -2,4 5 3 10 5 E 999,7 1,3 0,0
17.10.2017 19:00:00 -2,3 -2,3 5 3 13 7 E 999,7 0,3 0,0
17.10.2017 18:00:00 -2,5 -2,5 7 4 14 8 E 999,7 0,4 0,0
17.10.2017 17:00:00 -1,9 -1,9 9 5 16 9 E 999,7 0,7 0,0
17.10.2017 16:00:00 -1,9 -1,9 10 6 16 8 E 999,9 0,7 0,0
17.10.2017 15:00:00 -1,3 -1,3 10 5 15 8 E 1000,0 0,6 0,0
17.10.2017 14:00:00 -1,1 -1,1 5 3 9 5 E 999,9 0,5 0,0
17.10.2017 13:00:00 -0,9 -1,1 3 2 11 6 E 999,9 9 0,0
17.10.2017 12:00:00 -1,2 -1,2 3 2 11 6 ENE 1000,0 0,6 0,0
17.10.2017 11:00:00 -1,6 -1,8 3 1 6 3 NNW 1000,1 33 0,0
17.10.2017 10:00:00 -2,5 -2,6 3 1 6 3 SW 999,9 8 0,0
17.10.2017 09:00:00 -3,6 -3,6 1 0 11 6 ENE 999,6 0,8 0,0
17.10.2017 08:00:00 -3,8 -3,8 1 1 7 4 N 999,3 0,7 0,0
17.10.2017 07:00:00 -3,1 -3,1 4 2 8 5 WSW 998,9 3,7 0,0
17.10.2017 06:00:00 -2,5 -2,5 5 3 6 3 NE 998,4 6 0,0
17.10.2017 05:00:00 -2,2 -2,2 4 2 7 4 E 998,1 0,8 0,0
17.10.2017 04:00:00 -2,2 -2,2 3 2 5 3 E 997,7 1,7 0,0
17.10.2017 03:00:00 -1,8 -1,8 1 1 4 2 ESE 997,3 2,4 0,0
17.10.2017 02:00:00 -1,2 -1,2 3 2 4 2 ESE 996,7 4,3 0,0
17.10.2017 01:00:00 -0,1 -0,1 1 0 9 5 ENE 995,8 31 0,2
17.10.2017 00:00:00 0,0 0,0 5 3 7 4 SSW 995,1 2,9 0,5
16.10.2017 23:00:00 0,0 0,0 6 4 14 7 WNW 994,4 2,9 0,2
16.10.2017 22:00:00 0,2 0,1 10 5 16 9 NW 993,8 50 0,0
16.10.2017 21:00:00 0,2 0,2 10 6 20 11 WNW 992,8 50 0,0
16.10.2017 20:00:00 0,3 0,3 10 6 17 9 NW 992,1 50 0,0
16.10.2017 19:00:00 0,3 0,3 11 6 18 10 WNW 991,6 50 0,0
16.10.2017 18:00:00 0,1 0,1 9 5 14 8 WNW 990,9 37 0,1
16.10.2017 17:00:00 0,2 0,2 9 5 18 10 NW 990,4 8 0,1
16.10.2017 16:00:00 0,2 0,2 9 5 13 7 NW 989,8 19 0,1
16.10.2017 15:00:00 0,1 0,1 6 3 12 7 NNW 989,4 3,0 0,5
16.10.2017 14:00:00 0,1 0,1 4 2 9 5 N 989,2 1,9 1,4
16.10.2017 13:00:00 0,2 0,2 6 4 27 15 ENE 989,1 2,3 1,2
16.10.2017 12:00:00 0,2 0,2 16 9 35 19 E 989,3 1,7 2,6
16.10.2017 11:00:00 0,3 0,3 21 11 42 23 E 990,4 1,2 1,6
16.10.2017 10:00:00 0,4 0,4 23 12 38 20 E 991,5 12 1,2
16.10.2017 09:00:00 0,4 0,4 18 10 33 18 E 993,3 2,1 1,3
16.10.2017 08:00:00 1,5 1,2 16 8 32 17 ESE 995,3 10 1,1
16.10.2017 07:00:00 2,2 1,8 17 9 32 17 ESE 996,8 9 0,5
16.10.2017 06:00:00 2,4 2,0 13 7 29 16 ESE 998,7 36 0,2
16.10.2017 05:00:00 2,8 2,7 13 7 28 15 SE 1000,2 2,9 0,1
16.10.2017 04:00:00 2,8 2,7 11 6 23 12 ESE 1001,3 6 0,0
16.10.2017 03:00:00 3,1 2,8 11 6 20 11 SE 1002,7 9 0,0
16.10.2017 02:00:00 3,0 2,7 10 5 21 11 SE 1003,7 42 0,0
16.10.2017 01:00:00 2,7 2,7 3 2 9 5 ESE 1005,0 6 0,0
16.10.2017 00:00:00 2,7 2,5 5 3 19 10 ESE 1005,6 9 0,0
15.10.2017 23:00:00 3,1 2,2 10 6 22 12 SSE 1006,4 40 0,0
15.10.2017 22:00:00 3,1 2,2 8 4 18 10 SSE 1006,4 45 0,0
15.10.2017 21:00:00 3,0 2,2 8 4 20 11 SSE 1007,2 50 0,0
15.10.2017 20:00:00 3,1 2,0 10 5 18 10 SSE 1007,3 49 0,0
15.10.2017 19:00:00 3,1 2,2 8 4 18 10 SSE 1007,7 33 0,0
15.10.2017 18:00:00 3,1 2,6 8 4 16 9 SE 1007,9 14 0,0
15.10.2017 17:00:00 3,1 2,8 6 3 15 8 SSE 1008,2 8 0,0
15.10.2017 16:00:00 3,4 2,8 10 5 21 11 SSE 1008,1 10 0,0
15.10.2017 15:00:00 3,5 2,8 9 5 19 10 SSE 1007,9 41 0,0
15.10.2017 14:00:00 3,6 2,8 11 6 20 11 SSE 1007,8 33 0,0
15.10.2017 13:00:00 3,2 2,8 8 5 19 10 SE 1007,9 7 0,0
15.10.2017 12:00:00 3,0 2,6 10 6 19 11 SE 1007,6 13 0,0
15.10.2017 11:00:00 2,9 2,4 9 5 18 10 SE 1007,3 28 0,0
15.10.2017 10:00:00 2,7 2,4 9 5 17 9 SE 1007,1 25 0,0

tt = Température de l'air
td = dewpoint
ff = Vitesse du vent
fx = gusts
dd = Direction du vent
ppp = reduced air pressure
vv = visibility
rr = Quantités de précipitations

stations d'obs. à proximité